Time,TemperatureF,DewpointF,PressureIn,WindDirection,WindDirectionDegrees,WindSpeedMPH,WindSpeedGustMPH,Humidity,HourlyPrecipIn,Conditions,Clouds,dailyrainin,SolarRadiationWatts/m^2,SoftwareType,DateUTC
2013-07-23 00:01:00,46.0,36.0,30.15,WNW,296,1.0,2.0,68,0.00,,,0.00,0,WeatherCatV1.15B25,2013-07-22 14:01:00,
2013-07-23 00:06:00,45.9,35.9,30.14,WNW,295,0.0,1.0,68,0.00,,,0.00,0,WeatherCatV1.15B25,2013-07-22 14:06:00,
2013-07-23 00:11:00,45.8,35.8,30.14,WNW,295,0.0,1.0,68,0.00,,,0.00,0,WeatherCatV1.15B25,2013-07-22 14:11:00,
2013-07-23 00:16:00,45.7,36.1,30.14,WNW,295,0.0,1.0,69,0.00,,,0.00,0,WeatherCatV1.15B25,2013-07-22 14:16:00,
2013-07-23 00:21:00,45.4,35.8,30.14,WNW,295,0.0,1.0,69,0.00,,,0.00,0,WeatherCatV1.15B25,2013-07-22 14:21:00,
2013-07-23 00:26:00,45.2,35.6,30.14,WNW,295,0.0,0.0,69,0.00,,,0.00,0,WeatherCatV1.15B25,2013-07-22 14:26:00,
2013-07-23 00:31:00,45.0,35.8,30.14,WNW,295,0.0,1.0,70,0.00,,,0.00,0,WeatherCatV1.15B25,2013-07-22 14:31:00,
2013-07-23 00:36:00,44.8,35.6,30.14,WNW,295,1.0,1.0,70,0.00,,,0.00,0,WeatherCatV1.15B25,2013-07-22 14:36:00,
2013-07-23 00:41:00,44.7,35.9,30.14,WNW,295,0.0,2.0,71,0.00,,,0.00,0,WeatherCatV1.15B25,2013-07-22 14:41:00,
2013-07-23 00:46:00,44.6,35.8,30.14,WNW,295,1.0,1.0,71,0.00,,,0.00,0,WeatherCatV1.15B25,2013-07-22 14:46:00,
2013-07-23 00:51:00,44.6,35.8,30.14,WNW,295,0.0,1.0,71,0.00,,,0.00,0,WeatherCatV1.15B25,2013-07-22 14:51:00,
2013-07-23 00:56:00,44.6,35.8,30.14,WNW,295,0.0,2.0,71,0.00,,,0.00,0,WeatherCatV1.15B25,2013-07-22 14:56:00,
2013-07-23 01:01:00,44.6,35.8,30.14,WNW,295,1.0,1.0,71,0.00,,,0.00,0,WeatherCatV1.15B25,2013-07-22 15:01:00,
2013-07-23 01:06:00,44.6,35.8,30.14,WNW,295,1.0,1.0,71,0.00,,,0.00,0,WeatherCatV1.15B25,2013-07-22 15:06:00,
2013-07-23 01:11:00,44.7,35.9,30.14,WNW,300,1.0,2.0,71,0.00,,,0.00,0,WeatherCatV1.15B25,2013-07-22 15:11:00,
2013-07-23 01:16:00,44.8,36.0,30.13,WNW,302,0.0,2.0,71,0.00,,,0.00,0,WeatherCatV1.15B25,2013-07-22 15:16:00,
2013-07-23 01:21:00,44.9,36.1,30.13,WNW,302,0.0,2.0,71,0.00,,,0.00,0,WeatherCatV1.15B25,2013-07-22 15:21:00,
2013-07-23 01:26:00,45.1,35.9,30.13,WNW,303,0.0,2.0,70,0.00,,,0.00,0,WeatherCatV1.15B25,2013-07-22 15:26:00,
2013-07-23 01:31:00,45.3,36.1,30.13,WNW,290,0.0,2.0,70,0.00,,,0.00,0,WeatherCatV1.15B25,2013-07-22 15:31:00,
2013-07-23 01:36:00,45.7,36.1,30.13,WNW,291,0.0,2.0,69,0.00,,,0.00,0,WeatherCatV1.15B25,2013-07-22 15:36:00,
2013-07-23 01:38:00,45.8,36.2,30.13,WNW,295,1.0,3.0,69,0.00,,,0.00,0,WeatherCatV1.15B25,2013-07-22 15:38:00,
2013-07-23 01:43:00,46.1,36.1,30.13,WNW,297,0.0,2.0,68,0.00,,,0.00,0,WeatherCatV1.15B25,2013-07-22 15:43:00,
2013-07-23 01:48:00,46.4,36.0,30.13,WNW,294,0.0,4.0,67,0.00,,,0.00,0,WeatherCatV1.15B25,2013-07-22 15:48:00,
2013-07-23 01:53:00,46.7,36.0,30.13,WNW,295,1.0,3.0,66,0.00,,,0.00,0,WeatherCatV1.15B25,2013-07-22 15:53:00,
2013-07-23 01:58:00,46.9,36.1,30.13,WNW,302,0.0,4.0,66,0.00,,,0.00,0,WeatherCatV1.15B25,2013-07-22 15:58:00,
2013-07-23 02:03:00,47.2,36.0,30.12,WNW,300,1.0,1.0,65,0.00,,,0.00,0,WeatherCatV1.15B25,2013-07-22 16:03:00,
2013-07-23 02:08:00,47.3,36.1,30.12,WNW,296,1.0,2.0,65,0.00,,,0.00,0,WeatherCatV1.15B25,2013-07-22 16:08:00,
2013-07-23 02:13:00,47.2,36.0,30.12,WNW,296,1.0,1.0,65,0.00,,,0.00,0,WeatherCatV1.15B25,2013-07-22 16:13:00,
2013-07-23 02:18:00,47.2,36.0,30.12,NW,314,3.0,4.0,65,0.00,,,0.00,0,WeatherCatV1.15B25,2013-07-22 16:18:00,
2013-07-23 02:23:00,47.2,36.0,30.12,WNW,293,2.0,4.0,65,0.00,,,0.00,0,WeatherCatV1.15B25,2013-07-22 16:23:00,
2013-07-23 02:28:00,47.2,36.0,30.12,WNW,282,1.0,4.0,65,0.00,,,0.00,0,WeatherCatV1.15B25,2013-07-22 16:28:00,
2013-07-23 02:33:00,47.5,35.9,30.12,WNW,290,1.0,5.0,64,0.00,,,0.00,0,WeatherCatV1.15B25,2013-07-22 16:33:00,
2013-07-23 02:38:00,47.8,35.8,30.12,WSW,243,0.0,4.0,63,0.00,,,0.00,0,WeatherCatV1.15B25,2013-07-22 16:38:00,
2013-07-23 02:43:00,48.1,36.1,30.12,NW,307,3.0,4.0,63,0.00,,,0.00,0,WeatherCatV1.15B25,2013-07-22 16:43:00,
2013-07-23 02:48:00,48.3,35.9,30.12,WNW,297,0.0,4.0,62,0.00,,,0.00,0,WeatherCatV1.15B25,2013-07-22 16:48:00,
2013-07-23 02:53:00,48.5,35.7,30.12,NW,304,2.0,4.0,61,0.00,,,0.00,0,WeatherCatV1.15B25,2013-07-22 16:53:00,
2013-07-23 02:58:00,48.7,35.9,30.12,NW,309,3.0,4.0,61,0.00,,,0.00,0,WeatherCatV1.15B25,2013-07-22 16:58:00,
2013-07-23 03:03:00,48.7,35.9,30.12,NW,311,2.0,3.0,61,0.00,,,0.00,0,WeatherCatV1.15B25,2013-07-22 17:03:00,
2013-07-23 03:08:00,48.6,35.8,30.12,NNW,329,0.0,3.0,61,0.00,,,0.00,0,WeatherCatV1.15B25,2013-07-22 17:08:00,
2013-07-23 03:13:00,48.2,35.8,30.12,NW,321,0.0,1.0,62,0.00,,,0.00,0,WeatherCatV1.15B25,2013-07-22 17:13:00,
2013-07-23 03:18:00,47.8,35.4,30.12,NW,316,0.0,3.0,62,0.00,,,0.00,0,WeatherCatV1.15B25,2013-07-22 17:18:00,
2013-07-23 03:23:00,47.5,35.5,30.12,NW,316,1.0,2.0,63,0.00,,,0.00,0,WeatherCatV1.15B25,2013-07-22 17:23:00,
2013-07-23 03:28:00,47.1,35.6,30.12,WNW,297,0.0,3.0,64,0.00,,,0.00,0,WeatherCatV1.15B25,2013-07-22 17:28:00,
2013-07-23 03:33:00,47.0,35.9,30.12,NW,326,3.0,5.0,65,0.00,,,0.00,0,WeatherCatV1.15B25,2013-07-22 17:33:00,
2013-07-23 03:38:00,47.0,35.9,30.12,WNW,302,1.0,2.0,65,0.00,,,0.00,0,WeatherCatV1.15B25,2013-07-22 17:38:00,
2013-07-23 03:43:00,46.9,35.4,30.11,WNW,303,0.0,2.0,64,0.00,,,0.00,0,WeatherCatV1.15B25,2013-07-22 17:43:00,
2013-07-23 03:48:00,46.8,35.7,30.11,NW,304,2.0,3.0,65,0.00,,,0.00,0,WeatherCatV1.15B25,2013-07-22 17:48:00,
2013-07-23 03:53:00,46.6,35.9,30.11,NW,304,0.0,3.0,66,0.00,,,0.00,0,WeatherCatV1.15B25,2013-07-22 17:53:00,
2013-07-23 03:58:00,46.4,35.7,30.11,WNW,302,1.0,2.0,66,0.00,,,0.00,0,WeatherCatV1.15B25,2013-07-22 17:58:00,
2013-07-23 04:03:00,46.3,35.6,30.11,NW,307,0.0,2.0,66,0.00,,,0.00,0,WeatherCatV1.15B25,2013-07-22 18:03:00,
2013-07-23 04:08:00,46.3,35.6,30.11,NW,307,0.0,2.0,66,0.00,,,0.00,0,WeatherCatV1.15B25,2013-07-22 18:08:00,
2013-07-23 04:13:00,46.2,35.5,30.11,NW,307,0.0,2.0,66,0.00,,,0.00,0,WeatherCatV1.15B25,2013-07-22 18:13:00,
2013-07-23 04:18:00,46.1,35.8,30.11,NW,305,0.0,2.0,67,0.00,,,0.00,0,WeatherCatV1.15B25,2013-07-22 18:18:00,
2013-07-23 04:23:00,46.0,35.3,30.11,NW,305,0.0,2.0,66,0.00,,,0.00,0,WeatherCatV1.15B25,2013-07-22 18:23:00,
2013-07-23 04:28:00,46.1,35.8,30.11,NW,306,0.0,1.0,67,0.00,,,0.00,0,WeatherCatV1.15B25,2013-07-22 18:28:00,
2013-07-23 04:33:00,46.1,35.8,30.11,WNW,297,2.0,4.0,67,0.00,,,0.00,0,WeatherCatV1.15B25,2013-07-22 18:33:00,
2013-07-23 04:38:00,46.3,35.6,30.11,NW,319,3.0,4.0,66,0.00,,,0.00,0,WeatherCatV1.15B25,2013-07-22 18:38:00,
2013-07-23 04:43:00,46.3,35.6,30.11,WNW,298,1.0,5.0,66,0.00,,,0.00,0,WeatherCatV1.15B25,2013-07-22 18:43:00,
2013-07-23 04:48:00,46.2,35.5,30.11,WNW,299,0.0,2.0,66,0.00,,,0.00,0,WeatherCatV1.15B25,2013-07-22 18:48:00,
2013-07-23 04:53:00,46.0,35.7,30.11,WNW,299,0.0,0.0,67,0.00,,,0.00,0,WeatherCatV1.15B25,2013-07-22 18:53:00,
2013-07-23 04:58:00,45.8,35.5,30.11,WNW,302,0.0,1.0,67,0.00,,,0.00,0,WeatherCatV1.15B25,2013-07-22 18:58:00,
2013-07-23 05:03:00,45.7,35.8,30.11,NW,307,0.0,1.0,68,0.00,,,0.00,0,WeatherCatV1.15B25,2013-07-22 19:03:00,
2013-07-23 05:08:00,45.5,35.6,30.11,NW,308,0.0,2.0,68,0.00,,,0.00,0,WeatherCatV1.15B25,2013-07-22 19:08:00,
2013-07-23 05:13:00,45.5,35.6,30.11,NW,320,0.0,2.0,68,0.00,,,0.00,0,WeatherCatV1.15B25,2013-07-22 19:13:00,
2013-07-23 05:18:00,45.5,35.6,30.11,NW,314,1.0,1.0,68,0.00,,,0.00,0,WeatherCatV1.15B25,2013-07-22 19:18:00,
2013-07-23 05:23:00,45.5,35.6,30.11,NW,315,0.0,2.0,68,0.00,,,0.00,0,WeatherCatV1.15B25,2013-07-22 19:23:00,
2013-07-23 05:28:00,45.5,35.9,30.12,NW,315,2.0,4.0,69,0.00,,,0.00,0,WeatherCatV1.15B25,2013-07-22 19:28:00,
2013-07-23 05:33:00,45.5,35.6,30.12,NW,311,3.0,4.0,68,0.00,,,0.00,0,WeatherCatV1.15B25,2013-07-22 19:33:00,
2013-07-23 05:38:00,45.6,35.7,30.12,NW,314,1.0,4.0,68,0.00,,,0.00,0,WeatherCatV1.15B25,2013-07-22 19:38:00,
2013-07-23 05:43:00,45.5,35.6,30.12,NW,306,3.0,4.0,68,0.00,,,0.00,0,WeatherCatV1.15B25,2013-07-22 19:43:00,
2013-07-23 05:48:00,45.5,35.6,30.12,WNW,299,1.0,2.0,68,0.00,,,0.00,0,WeatherCatV1.15B25,2013-07-22 19:48:00,
2013-07-23 05:53:00,45.4,35.8,30.12,WNW,297,1.0,2.0,69,0.00,,,0.00,0,WeatherCatV1.15B25,2013-07-22 19:53:00,
2013-07-23 05:58:00,45.2,35.6,30.12,NW,309,0.0,2.0,69,0.00,,,0.00,0,WeatherCatV1.15B25,2013-07-22 19:58:00,
2013-07-23 06:03:00,45.1,35.5,30.12,WNW,293,0.0,1.0,69,0.00,,,0.00,0,WeatherCatV1.15B25,2013-07-22 20:03:00,
2013-07-23 06:08:00,45.0,35.5,30.12,WNW,293,1.0,1.0,69,0.00,,,0.00,0,WeatherCatV1.15B25,2013-07-22 20:08:00,
2013-07-23 06:13:00,44.9,35.7,30.12,WNW,300,0.0,3.0,70,0.00,,,0.00,0,WeatherCatV1.15B25,2013-07-22 20:13:00,
2013-07-23 06:16:00,44.9,35.7,30.12,NW,305,3.0,5.0,70,0.00,,,0.00,0,WeatherCatV1.15B25,2013-07-22 20:16:00,
2013-07-23 06:21:00,45.1,35.9,30.12,NW,323,3.0,6.0,70,0.00,,,0.00,0,WeatherCatV1.15B25,2013-07-22 20:21:00,
2013-07-23 06:26:00,45.3,35.7,30.13,NW,318,5.0,6.0,69,0.00,,,0.00,0,WeatherCatV1.15B25,2013-07-22 20:26:00,
2013-07-23 06:31:00,45.4,35.8,30.12,WNW,303,3.0,6.0,69,0.00,,,0.00,0,WeatherCatV1.15B25,2013-07-22 20:31:00,
2013-07-23 06:36:00,45.4,35.8,30.13,NW,308,4.0,5.0,69,0.00,,,0.00,0,WeatherCatV1.15B25,2013-07-22 20:36:00,
2013-07-23 06:41:00,45.4,35.8,30.13,WNW,300,4.0,7.0,69,0.00,,,0.00,0,WeatherCatV1.15B25,2013-07-22 20:41:00,
2013-07-23 06:42:00,45.3,35.7,30.13,WNW,297,4.0,5.0,69,0.00,,,0.00,0,WeatherCatV1.15B25,2013-07-22 20:42:00,
2013-07-23 06:47:00,45.3,35.7,30.13,NW,309,4.0,6.0,69,0.00,,,0.00,0,WeatherCatV1.15B25,2013-07-22 20:47:00,
2013-07-23 06:52:00,45.2,36.0,30.14,WNW,302,4.0,6.0,70,0.00,,,0.00,5,WeatherCatV1.15B25,2013-07-22 20:52:00,
2013-07-23 06:57:00,45.1,35.9,30.14,NW,309,5.0,6.0,70,0.00,,,0.00,9,WeatherCatV1.15B25,2013-07-22 20:57:00,
2013-07-23 07:02:00,45.1,35.9,30.14,WNW,285,4.0,6.0,70,0.00,,,0.00,11,WeatherCatV1.15B25,2013-07-22 21:02:00,
2013-07-23 07:07:00,45.2,36.0,30.14,NW,304,3.0,5.0,70,0.00,,,0.00,16,WeatherCatV1.15B25,2013-07-22 21:07:00,
2013-07-23 07:12:00,45.4,36.2,30.14,WNW,297,1.0,6.0,70,0.00,,,0.00,21,WeatherCatV1.15B25,2013-07-22 21:12:00,
2013-07-23 07:17:00,45.7,36.5,30.14,West,278,5.0,7.0,70,0.00,,,0.00,30,WeatherCatV1.15B25,2013-07-22 21:17:00,
2013-07-23 07:22:00,45.9,36.3,30.14,NW,307,7.0,7.0,69,0.00,,,0.00,42,WeatherCatV1.15B25,2013-07-22 21:22:00,
2013-07-23 07:27:00,46.2,36.6,30.14,West,262,3.0,9.0,69,0.00,,,0.00,54,WeatherCatV1.15B25,2013-07-22 21:27:00,
2013-07-23 07:32:00,46.4,36.4,30.14,WNW,289,7.0,7.0,68,0.00,,,0.00,70,WeatherCatV1.15B25,2013-07-22 21:32:00,
2013-07-23 07:37:00,46.7,36.7,30.14,NW,307,3.0,8.0,68,0.00,,,0.00,86,WeatherCatV1.15B25,2013-07-22 21:37:00,
2013-07-23 07:42:00,46.9,36.9,30.14,WNW,297,7.0,9.0,68,0.00,,,0.00,104,WeatherCatV1.15B25,2013-07-22 21:42:00,
2013-07-23 07:47:00,47.2,36.8,30.15,WNW,290,7.0,8.0,67,0.00,,,0.00,118,WeatherCatV1.15B25,2013-07-22 21:47:00,
2013-07-23 07:52:00,47.4,37.0,30.15,WNW,283,4.0,7.0,67,0.00,,,0.00,137,WeatherCatV1.15B25,2013-07-22 21:52:00,
2013-07-23 07:57:00,47.7,36.9,30.15,SW,224,3.0,8.0,66,0.00,,,0.00,156,WeatherCatV1.15B25,2013-07-22 21:57:00,
2013-07-23 08:02:00,47.9,37.1,30.15,NW,304,2.0,6.0,66,0.00,,,0.00,176,WeatherCatV1.15B25,2013-07-22 22:02:00,
2013-07-23 08:07:00,48.2,37.4,30.14,WNW,293,4.0,6.0,66,0.00,,,0.00,195,WeatherCatV1.15B25,2013-07-22 22:07:00,
2013-07-23 08:12:00,48.5,37.3,30.14,West,266,4.0,11.0,65,0.00,,,0.00,213,WeatherCatV1.15B25,2013-07-22 22:12:00,
2013-07-23 08:17:00,48.7,37.5,30.14,WNW,290,2.0,6.0,65,0.00,,,0.00,230,WeatherCatV1.15B25,2013-07-22 22:17:00,
2013-07-23 08:22:00,49.1,37.8,30.14,NW,306,3.0,13.0,65,0.00,,,0.00,243,WeatherCatV1.15B25,2013-07-22 22:22:00,
2013-07-23 08:27:00,49.4,37.7,30.14,West,278,6.0,9.0,64,0.00,,,0.00,257,WeatherCatV1.15B25,2013-07-22 22:27:00,
2013-07-23 08:32:00,49.7,38.0,30.15,WNW,302,3.0,11.0,64,0.00,,,0.00,271,WeatherCatV1.15B25,2013-07-22 22:32:00,
2013-07-23 08:37:00,50.0,37.9,30.15,NW,313,5.0,7.0,63,0.00,,,0.00,285,WeatherCatV1.15B25,2013-07-22 22:37:00,
2013-07-23 08:42:00,50.5,38.4,30.15,West,266,4.0,7.0,63,0.00,,,0.00,297,WeatherCatV1.15B25,2013-07-22 22:42:00,
2013-07-23 08:47:00,50.9,38.8,30.15,West,266,8.0,13.0,63,0.00,,,0.00,311,WeatherCatV1.15B25,2013-07-22 22:47:00,
2013-07-23 08:52:00,51.1,38.5,30.15,SW,233,2.0,6.0,62,0.00,,,0.00,325,WeatherCatV1.15B25,2013-07-22 22:52:00,
2013-07-23 08:57:00,51.5,38.9,30.15,West,276,2.0,6.0,62,0.00,,,0.00,336,WeatherCatV1.15B25,2013-07-22 22:57:00,
2013-07-23 09:02:00,51.8,38.8,30.15,WNW,290,5.0,6.0,61,0.00,,,0.00,346,WeatherCatV1.15B25,2013-07-22 23:02:00,
2013-07-23 09:07:00,52.2,38.7,30.15,WNW,293,3.0,8.0,60,0.00,,,0.00,359,WeatherCatV1.15B25,2013-07-22 23:07:00,
2013-07-23 09:12:00,52.4,38.9,30.15,WNW,285,2.0,7.0,60,0.00,,,0.00,373,WeatherCatV1.15B25,2013-07-22 23:12:00,
2013-07-23 09:17:00,52.8,39.3,30.15,NW,311,5.0,7.0,60,0.00,,,0.00,383,WeatherCatV1.15B25,2013-07-22 23:17:00,
2013-07-23 09:22:00,53.1,39.2,30.15,West,269,2.0,9.0,59,0.00,,,0.00,396,WeatherCatV1.15B25,2013-07-22 23:22:00,
2013-07-23 09:27:00,53.4,39.4,30.15,WSW,250,9.0,9.0,59,0.00,,,0.00,408,WeatherCatV1.15B25,2013-07-22 23:27:00,
2013-07-23 09:32:00,53.6,39.6,30.15,WNW,292,1.0,8.0,59,0.00,,,0.00,417,WeatherCatV1.15B25,2013-07-22 23:32:00,
2013-07-23 09:34:00,53.8,39.8,30.15,WNW,299,6.0,11.0,59,0.00,,,0.00,422,WeatherCatV1.15B25,2013-07-22 23:34:00,
2013-07-23 09:35:00,53.8,39.8,30.15,WNW,297,6.0,11.0,59,0.00,,,0.00,424,WeatherCatV1.15B25,2013-07-22 23:35:00,
2013-07-23 09:40:00,54.1,40.1,30.14,West,265,4.0,12.0,59,0.00,,,0.00,434,WeatherCatV1.15B25,2013-07-22 23:40:00,
2013-07-23 09:45:00,54.4,39.9,30.15,WNW,293,3.0,9.0,58,0.00,,,0.00,443,WeatherCatV1.15B25,2013-07-22 23:45:00,
2013-07-23 09:50:00,54.7,39.8,30.15,WNW,297,9.0,13.0,57,0.00,,,0.00,454,WeatherCatV1.15B25,2013-07-22 23:50:00,
2013-07-23 09:55:00,55.1,40.1,30.15,West,259,8.0,12.0,57,0.00,,,0.00,462,WeatherCatV1.15B25,2013-07-22 23:55:00,
2013-07-23 10:00:00,55.4,40.4,30.15,NW,314,2.0,9.0,57,0.00,,,0.00,473,WeatherCatV1.15B25,2013-07-23 00:00:00,
2013-07-23 10:05:00,55.8,40.8,30.15,NW,319,4.0,12.0,57,0.00,,,0.00,482,WeatherCatV1.15B25,2013-07-23 00:05:00,
2013-07-23 10:10:00,55.9,40.4,30.14,WNW,288,5.0,10.0,56,0.00,,,0.00,490,WeatherCatV1.15B25,2013-07-23 00:10:00,
2013-07-23 10:15:00,56.1,40.6,30.14,West,268,9.0,9.0,56,0.00,,,0.00,499,WeatherCatV1.15B25,2013-07-23 00:15:00,
2013-07-23 10:20:00,56.2,40.2,30.14,WNW,297,8.0,14.0,55,0.00,,,0.00,504,WeatherCatV1.15B25,2013-07-23 00:20:00,
2013-07-23 10:25:00,56.3,40.8,30.14,WNW,301,6.0,12.0,56,0.00,,,0.00,512,WeatherCatV1.15B25,2013-07-23 00:25:00,
2013-07-23 10:30:00,56.7,40.7,30.14,WNW,292,1.0,8.0,55,0.00,,,0.00,519,WeatherCatV1.15B25,2013-07-23 00:30:00,
2013-07-23 10:35:00,57.0,41.0,30.14,WNW,283,5.0,12.0,55,0.00,,,0.00,526,WeatherCatV1.15B25,2013-07-23 00:35:00,
2013-07-23 10:40:00,57.6,41.6,30.14,WNW,294,3.0,8.0,55,0.00,,,0.00,533,WeatherCatV1.15B25,2013-07-23 00:40:00,
2013-07-23 10:45:00,58.3,41.7,30.14,SW,225,4.0,10.0,54,0.00,,,0.00,540,WeatherCatV1.15B25,2013-07-23 00:45:00,
2013-07-23 10:50:00,58.4,41.3,30.14,South,185,5.0,11.0,53,0.00,,,0.00,547,WeatherCatV1.15B25,2013-07-23 00:50:00,
2013-07-23 10:55:00,58.7,41.1,30.13,WSW,241,3.0,9.0,52,0.00,,,0.00,550,WeatherCatV1.15B25,2013-07-23 00:55:00,
2013-07-23 11:01:00,58.8,41.2,30.13,WNW,293,6.0,12.0,52,0.00,,,0.00,557,WeatherCatV1.15B25,2013-07-23 01:01:00,
2013-07-23 11:06:00,59.0,41.9,30.13,WSW,251,11.0,11.0,53,0.00,,,0.00,561,WeatherCatV1.15B25,2013-07-23 01:06:00,
2013-07-23 11:11:00,59.3,41.7,30.13,WNW,301,9.0,13.0,52,0.00,,,0.00,564,WeatherCatV1.15B25,2013-07-23 01:11:00,
2013-07-23 11:16:00,59.5,41.4,30.13,SW,230,1.0,11.0,51,0.00,,,0.00,568,WeatherCatV1.15B25,2013-07-23 01:16:00,
2013-07-23 11:21:00,59.7,41.5,30.12,WSW,240,2.0,6.0,51,0.00,,,0.00,573,WeatherCatV1.15B25,2013-07-23 01:21:00,
2013-07-23 11:26:00,59.8,41.6,30.13,West,263,1.0,12.0,51,0.00,,,0.00,575,WeatherCatV1.15B25,2013-07-23 01:26:00,
2013-07-23 11:31:00,60.1,41.9,30.12,WSW,253,3.0,11.0,51,0.00,,,0.00,578,WeatherCatV1.15B25,2013-07-23 01:31:00,
2013-07-23 11:36:00,60.2,42.0,30.12,South,188,4.0,13.0,51,0.00,,,0.00,580,WeatherCatV1.15B25,2013-07-23 01:36:00,
2013-07-23 11:41:00,60.3,41.6,30.12,SSW,209,2.0,10.0,50,0.00,,,0.00,582,WeatherCatV1.15B25,2013-07-23 01:41:00,
2013-07-23 11:46:00,60.7,41.9,30.12,WNW,302,5.0,6.0,50,0.00,,,0.00,582,WeatherCatV1.15B25,2013-07-23 01:46:00,
2013-07-23 11:51:00,60.7,42.5,30.11,SW,220,2.0,10.0,51,0.00,,,0.00,582,WeatherCatV1.15B25,2013-07-23 01:51:00,
2013-07-23 11:56:00,61.0,41.2,30.11,NW,312,3.0,8.0,48,0.00,,,0.00,585,WeatherCatV1.15B25,2013-07-23 01:56:00,
2013-07-23 12:01:00,61.1,41.3,30.11,SSW,211,5.0,8.0,48,0.00,,,0.00,587,WeatherCatV1.15B25,2013-07-23 02:01:00,
2013-07-23 12:06:00,61.5,42.2,30.11,WNW,297,2.0,8.0,49,0.00,,,0.00,585,WeatherCatV1.15B25,2013-07-23 02:06:00,
2013-07-23 12:11:00,62.0,42.1,30.10,SSW,212,4.0,5.0,48,0.00,,,0.00,587,WeatherCatV1.15B25,2013-07-23 02:11:00,
2013-07-23 12:16:00,62.4,41.3,30.10,WSW,245,0.0,6.0,46,0.00,,,0.00,585,WeatherCatV1.15B25,2013-07-23 02:16:00,
2013-07-23 12:21:00,62.3,41.3,30.10,SW,217,3.0,11.0,46,0.00,,,0.00,582,WeatherCatV1.15B25,2013-07-23 02:21:00,
2013-07-23 12:26:00,62.4,41.3,30.10,SW,220,7.0,10.0,46,0.00,,,0.00,578,WeatherCatV1.15B25,2013-07-23 02:26:00,
2013-07-23 12:31:00,62.2,41.2,30.10,NW,314,4.0,7.0,46,0.00,,,0.00,575,WeatherCatV1.15B25,2013-07-23 02:31:00,
2013-07-23 12:36:00,62.6,41.5,30.10,SSW,212,13.0,13.0,46,0.00,,,0.00,577,WeatherCatV1.15B25,2013-07-23 02:36:00,
2013-07-23 12:41:00,62.6,42.1,30.09,WNW,295,3.0,4.0,47,0.00,,,0.00,582,WeatherCatV1.15B25,2013-07-23 02:41:00,
2013-07-23 12:46:00,62.7,41.6,30.09,WNW,294,4.0,5.0,46,0.00,,,0.00,619,WeatherCatV1.15B25,2013-07-23 02:46:00,
2013-07-23 12:51:00,63.0,41.9,30.09,SSW,197,2.0,6.0,46,0.00,,,0.00,642,WeatherCatV1.15B25,2013-07-23 02:51:00,
2013-07-23 12:56:00,62.9,41.2,30.09,SSW,205,7.0,9.0,45,0.00,,,0.00,666,WeatherCatV1.15B25,2013-07-23 02:56:00,
2013-07-23 13:01:00,62.6,42.1,30.09,NW,304,1.0,6.0,47,0.00,,,0.00,657,WeatherCatV1.15B25,2013-07-23 03:01:00,
2013-07-23 13:06:00,62.6,41.5,30.08,WSW,245,1.0,12.0,46,0.00,,,0.00,659,WeatherCatV1.15B25,2013-07-23 03:06:00,
2013-07-23 13:11:00,62.5,41.4,30.08,SW,214,4.0,9.0,46,0.00,,,0.00,248,WeatherCatV1.15B25,2013-07-23 03:11:00,
2013-07-23 13:16:00,62.5,42.0,30.08,SSW,212,3.0,6.0,47,0.00,,,0.00,248,WeatherCatV1.15B25,2013-07-23 03:16:00,
2013-07-23 13:21:00,62.9,41.8,30.08,WSW,248,2.0,4.0,46,0.00,,,0.00,216,WeatherCatV1.15B25,2013-07-23 03:21:00,
2013-07-23 13:26:00,63.1,42.5,30.08,SSW,208,1.0,6.0,47,0.00,,,0.00,156,WeatherCatV1.15B25,2013-07-23 03:26:00,
2013-07-23 13:31:00,63.0,41.9,30.08,SW,214,4.0,6.0,46,0.00,,,0.00,564,WeatherCatV1.15B25,2013-07-23 03:31:00,
2013-07-23 13:36:00,62.5,40.3,30.08,SW,219,6.0,11.0,44,0.00,,,0.00,84,WeatherCatV1.15B25,2013-07-23 03:36:00,
2013-07-23 13:41:00,61.8,40.2,30.08,SW,219,1.0,9.0,45,0.00,,,0.00,587,WeatherCatV1.15B25,2013-07-23 03:41:00,
2013-07-23 13:46:00,62.0,41.0,30.08,SSW,209,5.0,7.0,46,0.00,,,0.00,568,WeatherCatV1.15B25,2013-07-23 03:46:00,
2013-07-23 13:51:00,62.5,41.4,30.07,SW,235,3.0,5.0,46,0.00,,,0.00,169,WeatherCatV1.15B25,2013-07-23 03:51:00,
2013-07-23 13:56:00,62.5,41.4,30.08,SSW,200,5.0,6.0,46,0.00,,,0.00,116,WeatherCatV1.15B25,2013-07-23 03:56:00,
2013-07-23 14:01:00,62.3,41.8,30.08,SW,219,9.0,9.0,47,0.00,,,0.00,116,WeatherCatV1.15B25,2013-07-23 04:01:00,
2013-07-23 14:06:00,62.4,41.3,30.07,SSW,195,6.0,6.0,46,0.00,,,0.00,571,WeatherCatV1.15B25,2013-07-23 04:06:00,
2013-07-23 14:11:00,62.9,41.2,30.07,WSW,238,3.0,9.0,45,0.00,,,0.00,534,WeatherCatV1.15B25,2013-07-23 04:11:00,
2013-07-23 14:16:00,63.2,41.5,30.07,SSW,207,7.0,7.0,45,0.00,,,0.00,538,WeatherCatV1.15B25,2013-07-23 04:16:00,
2013-07-23 14:21:00,63.4,41.1,30.07,SW,221,1.0,5.0,44,0.00,,,0.00,517,WeatherCatV1.15B25,2013-07-23 04:21:00,
2013-07-23 14:26:00,63.6,41.3,30.07,SW,229,3.0,5.0,44,0.00,,,0.00,132,WeatherCatV1.15B25,2013-07-23 04:26:00,
2013-07-23 14:31:00,63.3,40.4,30.07,SW,224,5.0,5.0,43,0.00,,,0.00,120,WeatherCatV1.15B25,2013-07-23 04:31:00,
2013-07-23 14:36:00,62.4,40.2,30.07,SSW,207,7.0,8.0,44,0.00,,,0.00,526,WeatherCatV1.15B25,2013-07-23 04:36:00,
2013-07-23 14:41:00,62.2,40.6,30.07,SW,219,4.0,7.0,45,0.00,,,0.00,167,WeatherCatV1.15B25,2013-07-23 04:41:00,
2013-07-23 14:46:00,61.9,40.3,30.07,SSW,200,4.0,5.0,45,0.00,,,0.00,185,WeatherCatV1.15B25,2013-07-23 04:46:00,
2013-07-23 14:51:00,61.9,40.3,30.07,SSW,208,1.0,9.0,45,0.00,,,0.00,241,WeatherCatV1.15B25,2013-07-23 04:51:00,
2013-07-23 14:56:00,62.0,40.4,30.07,SW,232,2.0,8.0,45,0.00,,,0.00,294,WeatherCatV1.15B25,2013-07-23 04:56:00,
2013-07-23 15:01:00,62.4,40.8,30.07,SSW,195,7.0,12.0,45,0.00,,,0.00,425,WeatherCatV1.15B25,2013-07-23 05:01:00,
2013-07-23 15:06:00,62.7,41.6,30.07,SW,221,1.0,4.0,46,0.00,,,0.00,144,WeatherCatV1.15B25,2013-07-23 05:06:00,
2013-07-23 15:11:00,62.6,41.0,30.07,SW,230,2.0,8.0,45,0.00,,,0.00,114,WeatherCatV1.15B25,2013-07-23 05:11:00,
2013-07-23 15:16:00,62.1,41.1,30.08,SW,226,4.0,6.0,46,0.00,,,0.00,93,WeatherCatV1.15B25,2013-07-23 05:16:00,
2013-07-23 15:21:00,61.6,41.2,30.08,SW,219,7.0,9.0,47,0.00,,,0.00,65,WeatherCatV1.15B25,2013-07-23 05:21:00,
2013-07-23 15:26:00,61.1,41.3,30.08,SW,225,1.0,4.0,48,0.00,,,0.00,88,WeatherCatV1.15B25,2013-07-23 05:26:00,
2013-07-23 15:31:00,60.9,41.6,30.08,SW,217,3.0,4.0,49,0.00,,,0.00,121,WeatherCatV1.15B25,2013-07-23 05:31:00,
2013-07-23 15:36:00,60.9,42.1,30.08,SW,222,2.0,4.0,50,0.00,,,0.00,86,WeatherCatV1.15B25,2013-07-23 05:36:00,
2013-07-23 15:41:00,60.7,41.9,30.08,SW,223,3.0,5.0,50,0.00,,,0.00,65,WeatherCatV1.15B25,2013-07-23 05:41:00,
2013-07-23 15:46:00,60.5,41.8,30.08,SW,225,5.0,5.0,50,0.00,,,0.00,97,WeatherCatV1.15B25,2013-07-23 05:46:00,
2013-07-23 15:51:00,60.4,42.2,30.09,SSW,213,4.0,4.0,51,0.00,,,0.00,104,WeatherCatV1.15B25,2013-07-23 05:51:00,
2013-07-23 15:56:00,60.4,42.2,30.09,SW,221,1.0,5.0,51,0.00,,,0.00,176,WeatherCatV1.15B25,2013-07-23 05:56:00,
2013-07-23 16:01:00,60.9,42.6,30.09,SW,229,0.0,4.0,51,0.00,,,0.00,220,WeatherCatV1.15B25,2013-07-23 06:01:00,
2013-07-23 16:06:00,61.4,43.1,30.09,SSW,213,0.0,5.0,51,0.00,,,0.00,193,WeatherCatV1.15B25,2013-07-23 06:06:00,
2013-07-23 16:11:00,61.7,42.9,30.09,SW,217,4.0,7.0,50,0.00,,,0.00,172,WeatherCatV1.15B25,2013-07-23 06:11:00,
2013-07-23 16:16:00,61.7,42.3,30.09,SW,224,2.0,8.0,49,0.00,,,0.00,86,WeatherCatV1.15B25,2013-07-23 06:16:00,
2013-07-23 16:21:00,61.3,42.0,30.09,SSW,205,5.0,11.0,49,0.00,,,0.00,54,WeatherCatV1.15B25,2013-07-23 06:21:00,
2013-07-23 16:26:00,60.9,42.1,30.09,SW,225,3.0,4.0,50,0.00,,,0.00,46,WeatherCatV1.15B25,2013-07-23 06:26:00,
2013-07-23 16:31:00,60.5,42.3,30.10,SW,217,3.0,6.0,51,0.00,,,0.00,37,WeatherCatV1.15B25,2013-07-23 06:31:00,
2013-07-23 16:36:00,60.1,41.9,30.10,SSW,212,1.0,6.0,51,0.00,,,0.00,37,WeatherCatV1.15B25,2013-07-23 06:36:00,
2013-07-23 16:41:00,59.8,42.1,30.10,SW,230,0.0,5.0,52,0.00,,,0.00,35,WeatherCatV1.15B25,2013-07-23 06:41:00,
2013-07-23 16:46:00,59.6,41.4,30.10,SW,215,1.0,7.0,51,0.00,,,0.00,26,WeatherCatV1.15B25,2013-07-23 06:46:00,
2013-07-23 16:51:00,59.5,41.4,30.10,SW,222,1.0,5.0,51,0.00,,,0.00,19,WeatherCatV1.15B25,2013-07-23 06:51:00,
2013-07-23 16:56:00,59.3,41.7,30.10,SW,214,1.0,2.0,52,0.00,,,0.00,12,WeatherCatV1.15B25,2013-07-23 06:56:00,
2013-07-23 17:01:00,59.2,41.6,30.10,SW,219,3.0,6.0,52,0.00,,,0.00,7,WeatherCatV1.15B25,2013-07-23 07:01:00,
2013-07-23 17:06:00,59.0,41.9,30.10,SW,222,2.0,3.0,53,0.00,,,0.00,5,WeatherCatV1.15B25,2013-07-23 07:06:00,
2013-07-23 17:11:00,58.8,41.7,30.11,SW,231,1.0,4.0,53,0.00,,,0.00,0,WeatherCatV1.15B25,2013-07-23 07:11:00,
2013-07-23 17:16:00,58.7,41.6,30.10,WSW,250,2.0,2.0,53,0.00,,,0.00,0,WeatherCatV1.15B25,2013-07-23 07:16:00,
2013-07-23 17:21:00,58.5,41.4,30.11,West,272,1.0,2.0,53,0.00,,,0.00,0,WeatherCatV1.15B25,2013-07-23 07:21:00,
2013-07-23 17:26:00,58.4,41.3,30.11,West,259,1.0,4.0,53,0.00,,,0.00,0,WeatherCatV1.15B25,2013-07-23 07:26:00,
2013-07-23 17:31:00,58.2,41.2,30.11,SW,224,0.0,4.0,53,0.00,,,0.00,0,WeatherCatV1.15B25,2013-07-23 07:31:00,
2013-07-23 17:36:00,57.9,40.9,30.12,SW,224,0.0,4.0,53,0.00,,,0.00,0,WeatherCatV1.15B25,2013-07-23 07:36:00,
2013-07-23 17:41:00,57.8,40.8,30.12,WSW,240,2.0,5.0,53,0.00,,,0.00,0,WeatherCatV1.15B25,2013-07-23 07:41:00,
2013-07-23 17:46:00,57.7,41.2,30.12,SW,217,2.0,5.0,54,0.00,,,0.00,0,WeatherCatV1.15B25,2013-07-23 07:46:00,
2013-07-23 17:51:00,57.6,41.1,30.12,SW,220,3.0,7.0,54,0.00,,,0.00,0,WeatherCatV1.15B25,2013-07-23 07:51:00,
2013-07-23 17:56:00,57.4,41.4,30.12,WSW,248,3.0,6.0,55,0.00,,,0.00,0,WeatherCatV1.15B25,2013-07-23 07:56:00,
2013-07-23 18:01:00,57.3,41.3,30.12,SW,215,3.0,5.0,55,0.00,,,0.00,0,WeatherCatV1.15B25,2013-07-23 08:01:00,
2013-07-23 18:06:00,57.2,41.2,30.12,SW,223,2.0,4.0,55,0.00,,,0.00,0,WeatherCatV1.15B25,2013-07-23 08:06:00,
2013-07-23 18:11:00,57.2,41.2,30.12,SW,217,0.0,5.0,55,0.00,,,0.00,0,WeatherCatV1.15B25,2013-07-23 08:11:00,
2013-07-23 18:16:00,57.1,41.1,30.13,SW,230,3.0,6.0,55,0.00,,,0.00,0,WeatherCatV1.15B25,2013-07-23 08:16:00,
2013-07-23 18:21:00,57.1,41.1,30.13,SW,224,1.0,2.0,55,0.00,,,0.00,0,WeatherCatV1.15B25,2013-07-23 08:21:00,
2013-07-23 18:26:00,56.9,40.9,30.13,West,261,3.0,3.0,55,0.00,,,0.00,0,WeatherCatV1.15B25,2013-07-23 08:26:00,
2013-07-23 18:31:00,56.8,41.3,30.13,WSW,258,2.0,2.0,56,0.00,,,0.00,0,WeatherCatV1.15B25,2013-07-23 08:31:00,
2013-07-23 18:36:00,56.6,41.1,30.14,WSW,258,0.0,1.0,56,0.00,,,0.00,0,WeatherCatV1.15B25,2013-07-23 08:36:00,
2013-07-23 18:41:00,56.3,41.3,30.14,WSW,258,0.0,2.0,57,0.00,,,0.00,0,WeatherCatV1.15B25,2013-07-23 08:41:00,
2013-07-23 18:46:00,56.1,41.5,30.14,WSW,258,0.0,2.0,58,0.00,,,0.00,0,WeatherCatV1.15B25,2013-07-23 08:46:00,
2013-07-23 18:51:00,55.8,41.2,30.14,WSW,243,1.0,4.0,58,0.00,,,0.00,0,WeatherCatV1.15B25,2013-07-23 08:51:00,
2013-07-23 18:56:00,55.7,40.7,30.14,SW,229,0.0,3.0,57,0.00,,,0.00,0,WeatherCatV1.15B25,2013-07-23 08:56:00,
2013-07-23 19:01:00,55.6,40.6,30.14,SW,217,2.0,3.0,57,0.00,,,0.00,0,WeatherCatV1.15B25,2013-07-23 09:01:00,
2013-07-23 19:06:00,55.8,40.3,30.15,SW,220,2.0,7.0,56,0.00,,,0.00,0,WeatherCatV1.15B25,2013-07-23 09:06:00,
2013-07-23 19:11:00,55.9,40.4,30.15,SW,222,1.0,4.0,56,0.00,,,0.00,0,WeatherCatV1.15B25,2013-07-23 09:11:00,
2013-07-23 19:16:00,55.8,40.8,30.15,SW,215,1.0,3.0,57,0.00,,,0.00,0,WeatherCatV1.15B25,2013-07-23 09:16:00,
2013-07-23 19:21:00,55.6,40.6,30.15,WSW,239,7.0,8.0,57,0.00,,,0.00,0,WeatherCatV1.15B25,2013-07-23 09:21:00,
2013-07-23 19:26:00,55.4,40.9,30.16,SW,221,5.0,7.0,58,0.00,,,0.00,0,WeatherCatV1.15B25,2013-07-23 09:26:00,
2013-07-23 19:31:00,55.3,40.8,30.16,SW,226,4.0,6.0,58,0.00,,,0.00,0,WeatherCatV1.15B25,2013-07-23 09:31:00,
2013-07-23 19:36:00,55.1,41.0,30.16,SSW,208,1.0,4.0,59,0.00,,,0.00,0,WeatherCatV1.15B25,2013-07-23 09:36:00,
2013-07-23 19:41:00,54.9,40.8,30.16,West,259,1.0,7.0,59,0.00,,,0.00,0,WeatherCatV1.15B25,2013-07-23 09:41:00,
2013-07-23 19:46:00,54.7,41.1,30.16,WSW,251,2.0,7.0,60,0.00,,,0.00,0,WeatherCatV1.15B25,2013-07-23 09:46:00,
2013-07-23 19:51:00,54.5,40.9,30.16,SW,219,4.0,6.0,60,0.00,,,0.00,0,WeatherCatV1.15B25,2013-07-23 09:51:00,
2013-07-23 19:56:00,54.4,40.8,30.16,SW,218,6.0,8.0,60,0.00,,,0.00,0,WeatherCatV1.15B25,2013-07-23 09:56:00,
2013-07-23 20:01:00,54.4,40.8,30.16,WSW,243,3.0,9.0,60,0.00,,,0.00,0,WeatherCatV1.15B25,2013-07-23 10:01:00,
2013-07-23 20:06:00,54.4,40.8,30.16,SW,234,5.0,6.0,60,0.00,,,0.00,0,WeatherCatV1.15B25,2013-07-23 10:06:00,
2013-07-23 20:11:00,54.4,40.8,30.16,SSW,207,5.0,6.0,60,0.00,,,0.00,0,WeatherCatV1.15B25,2013-07-23 10:11:00,
2013-07-23 20:16:00,54.4,40.8,30.17,West,262,1.0,7.0,60,0.00,,,0.00,0,WeatherCatV1.15B25,2013-07-23 10:16:00,
2013-07-23 20:21:00,54.3,41.1,30.17,WSW,255,0.0,3.0,61,0.00,,,0.00,0,WeatherCatV1.15B25,2013-07-23 10:21:00,
2013-07-23 20:26:00,54.1,41.0,30.17,SW,217,1.0,6.0,61,0.00,,,0.00,0,WeatherCatV1.15B25,2013-07-23 10:26:00,
2013-07-23 20:31:00,53.9,40.8,30.17,West,268,2.0,7.0,61,0.00,,,0.00,0,WeatherCatV1.15B25,2013-07-23 10:31:00,
2013-07-23 20:36:00,53.9,40.8,30.17,SW,235,4.0,5.0,61,0.00,,,0.00,0,WeatherCatV1.15B25,2013-07-23 10:36:00,
2013-07-23 20:41:00,53.9,40.8,30.17,SSW,211,1.0,6.0,61,0.00,,,0.00,0,WeatherCatV1.15B25,2013-07-23 10:41:00,
2013-07-23 20:46:00,54.0,40.9,30.17,SW,220,7.0,7.0,61,0.00,,,0.00,0,WeatherCatV1.15B25,2013-07-23 10:46:00,
2013-07-23 20:51:00,54.1,41.0,30.17,SSW,210,0.0,7.0,61,0.00,,,0.00,0,WeatherCatV1.15B25,2013-07-23 10:51:00,
2013-07-23 20:56:00,54.0,40.9,30.17,SSW,207,0.0,9.0,61,0.00,,,0.00,0,WeatherCatV1.15B25,2013-07-23 10:56:00,
2013-07-23 21:01:00,53.8,40.7,30.17,SSW,196,5.0,7.0,61,0.00,,,0.00,0,WeatherCatV1.15B25,2013-07-23 11:01:00,
2013-07-23 21:06:00,53.7,40.6,30.17,WSW,244,2.0,4.0,61,0.00,,,0.00,0,WeatherCatV1.15B25,2013-07-23 11:06:00,
2013-07-23 21:11:00,53.6,40.9,30.17,SW,217,1.0,7.0,62,0.00,,,0.00,0,WeatherCatV1.15B25,2013-07-23 11:11:00,
2013-07-23 21:16:00,53.4,40.7,30.17,WSW,243,1.0,3.0,62,0.00,,,0.00,0,WeatherCatV1.15B25,2013-07-23 11:16:00,
2013-07-23 21:21:00,53.1,40.4,30.18,SW,235,1.0,6.0,62,0.00,,,0.00,0,WeatherCatV1.15B25,2013-07-23 11:21:00,
2013-07-23 21:26:00,53.0,40.7,30.18,WSW,246,0.0,4.0,63,0.00,,,0.00,0,WeatherCatV1.15B25,2013-07-23 11:26:00,
2013-07-23 21:31:00,52.8,40.6,30.18,WNW,284,0.0,2.0,63,0.00,,,0.00,0,WeatherCatV1.15B25,2013-07-23 11:31:00,
2013-07-23 21:36:00,52.6,40.8,30.18,West,264,1.0,2.0,64,0.00,,,0.00,0,WeatherCatV1.15B25,2013-07-23 11:36:00,
2013-07-23 21:41:00,52.4,40.6,30.18,WNW,288,2.0,4.0,64,0.00,,,0.00,0,WeatherCatV1.15B25,2013-07-23 11:41:00,
2013-07-23 21:46:00,52.1,40.7,30.18,West,271,0.0,3.0,65,0.00,,,0.00,0,WeatherCatV1.15B25,2013-07-23 11:46:00,
2013-07-23 21:51:00,51.8,40.8,30.18,West,281,3.0,3.0,66,0.00,,,0.00,0,WeatherCatV1.15B25,2013-07-23 11:51:00,
2013-07-23 21:56:00,51.4,40.4,30.18,WNW,294,2.0,2.0,66,0.00,,,0.00,0,WeatherCatV1.15B25,2013-07-23 11:56:00,
2013-07-23 22:01:00,51.3,40.7,30.18,West,261,1.0,3.0,67,0.00,,,0.00,0,WeatherCatV1.15B25,2013-07-23 12:01:00,
2013-07-23 22:06:00,51.1,40.5,30.18,West,274,0.0,4.0,67,0.00,,,0.00,0,WeatherCatV1.15B25,2013-07-23 12:06:00,
2013-07-23 22:11:00,51.1,40.1,30.19,WSW,250,0.0,3.0,66,0.00,,,0.00,0,WeatherCatV1.15B25,2013-07-23 12:11:00,
2013-07-23 22:16:00,51.4,40.0,30.19,WSW,239,4.0,10.0,65,0.00,,,0.00,0,WeatherCatV1.15B25,2013-07-23 12:16:00,
2013-07-23 22:21:00,52.1,40.3,30.19,WSW,244,4.0,14.0,64,0.00,,,0.00,0,WeatherCatV1.15B25,2013-07-23 12:21:00,
2013-07-23 22:26:00,52.5,39.9,30.19,SSW,212,6.0,9.0,62,0.00,,,0.00,0,WeatherCatV1.15B25,2013-07-23 12:26:00,
2013-07-23 22:31:00,52.7,40.0,30.19,SSW,209,9.0,11.0,62,0.00,,,0.00,0,WeatherCatV1.15B25,2013-07-23 12:31:00,
2013-07-23 22:36:00,52.8,39.7,30.19,SW,219,9.0,9.0,61,0.00,,,0.00,0,WeatherCatV1.15B25,2013-07-23 12:36:00,
2013-07-23 22:41:00,52.9,39.8,30.19,SW,215,2.0,8.0,61,0.00,,,0.00,0,WeatherCatV1.15B25,2013-07-23 12:41:00,
2013-07-23 22:46:00,52.9,39.8,30.19,SW,218,10.0,10.0,61,0.00,,,0.00,0,WeatherCatV1.15B25,2013-07-23 12:46:00,
2013-07-23 22:51:00,53.1,39.6,30.19,SW,218,3.0,10.0,60,0.00,,,0.00,0,WeatherCatV1.15B25,2013-07-23 12:51:00,
2013-07-23 22:56:00,53.2,39.7,30.19,SW,221,1.0,9.0,60,0.00,,,0.00,0,WeatherCatV1.15B25,2013-07-23 12:56:00,
2013-07-23 23:01:00,53.2,39.7,30.19,SW,233,4.0,9.0,60,0.00,,,0.00,0,WeatherCatV1.15B25,2013-07-23 13:01:00,
2013-07-23 23:06:00,53.2,39.7,30.19,WSW,244,5.0,9.0,60,0.00,,,0.00,0,WeatherCatV1.15B25,2013-07-23 13:06:00,
2013-07-23 23:11:00,53.1,39.6,30.19,SW,226,6.0,7.0,60,0.00,,,0.00,0,WeatherCatV1.15B25,2013-07-23 13:11:00,
2013-07-23 23:16:00,53.2,39.7,30.19,SW,222,4.0,9.0,60,0.00,,,0.00,0,WeatherCatV1.15B25,2013-07-23 13:16:00,
2013-07-23 23:21:00,53.2,39.7,30.19,SW,233,3.0,8.0,60,0.00,,,0.00,0,WeatherCatV1.15B25,2013-07-23 13:21:00,
2013-07-23 23:26:00,53.3,39.8,30.19,SW,225,3.0,12.0,60,0.00,,,0.00,0,WeatherCatV1.15B25,2013-07-23 13:26:00,
2013-07-23 23:31:00,53.4,39.9,30.19,SSW,206,3.0,8.0,60,0.00,,,0.00,0,WeatherCatV1.15B25,2013-07-23 13:31:00,
2013-07-23 23:36:00,53.2,39.7,30.19,SW,218,9.0,11.0,60,0.00,,,0.00,0,WeatherCatV1.15B25,2013-07-23 13:36:00,
2013-07-23 23:41:00,53.2,39.7,30.19,WSW,238,11.0,14.0,60,0.00,,,0.00,0,WeatherCatV1.15B25,2013-07-23 13:41:00,
2013-07-23 23:46:00,53.1,39.6,30.19,SSW,212,5.0,7.0,60,0.00,,,0.00,0,WeatherCatV1.15B25,2013-07-23 13:46:00,
2013-07-23 23:51:00,53.2,39.7,30.19,SW,218,5.0,12.0,60,0.00,,,0.00,0,WeatherCatV1.15B25,2013-07-23 13:51:00,
2013-07-23 23:56:00,53.2,39.7,30.19,SW,219,12.0,14.0,60,0.00,,,0.00,0,WeatherCatV1.15B25,2013-07-23 13:56:00,